Regional Weather Roundup
Issued by NWS

Home | Current Version | Previous Version | Text Only | Print | Product List | Glossary On
Versions: 1 2 3 4 5 6 7 8 9 10 11 12 13 14 15 16 17 18 19 20 21 22 23 24 25 26 27 28 29 30 31 32 33 34 35 36 37 38 39 40 41 42 43 44 45 46 47 48 49
000
ASUS45 KBOU 212207
RWRCO

WEATHER ROUNDUP FOR COLORADO
NATIONAL WEATHER SERVICE DENVER/BOULDER CO
400 PM MDT SUN SEP 21 2014

NOTE: "FAIR" INDICATES FEW OR NO CLOUDS BELOW 12000 FEET WITH NO
SIGNIFICANT WEATHER AND/OR OBSTRUCTIONS TO VISIBILITY.

COZ001>005-013-030-031-212300-
...NORTHWEST COLORADO...

CITY           SKY/WX    TMP DP  RH WIND       PRES   REMARKS
CRAIG          CLOUDY    65  52  62 E15       30.30F
HAYDEN         CLOUDY    63  50  63 SE15      30.33F
MEEKER         NOT AVBL
MOUNT WERNER   NOT AVBL
STEAMBOAT SPGS CLOUDY    57  52  81 N6        30.37F
WALDEN         PTSUNNY   63  39  42 W13G20    30.41R
$$

COZ006>008-011-212300-
...WEST CENTRAL VALLEYS...

CITY           SKY/WX    TMP DP  RH WIND       PRES   REMARKS
GRAND JUNCTION MOSUNNY   77  53  43 E10       30.12F
MONTROSE       MOSUNNY   80  49  33 E6        30.19F
EAGLE          PTSUNNY   70  46  43 E8        30.34F
RIFLE          MOSUNNY   76  48  37 E13       30.21F
DELTA          RAIN      82  50  32 NE7       30.15F
NUCLA          MOSUNNY   82  41  23 S17G26    30.21F
$$

COZ017>023-064>068-212300-
...SOUTHWEST COLORADO...

CITY           SKY/WX    TMP DP  RH WIND       PRES   REMARKS
DURANGO        PTSUNNY   76  42  29 S9        30.27F
CORTEZ         MOSUNNY   78  48  34 S14G22    30.21F
PAGOSA SPRINGS PTSUNNY   73  38  28 SW9       30.35S
TELLURIDE      NOT AVBL
WOLF CREEK PAS CLOUDY    50  37  62 SW13G25   30.64F
$$

COZ009-010-012-014-032>034-037-058>063-212300-
...CENTRAL COLORADO...

CITY           SKY/WX    TMP DP  RH WIND       PRES   REMARKS
ASPEN          PTSUNNY   65  45  48 NW6       30.37F
BUENA VISTA    MOSUNNY   65  48  53 SE10      30.42S
COPPER MTN     CLOUDY    54  45  71 W6        30.68F
BERTHOUD PASS  TSTM      36  34  93 N5        30.74F VSB 1/4
COTTONWOOD PAS CLOUDY    59  46  63 SE8       30.54S
GUNNISON       MOSUNNY   68  46  45 CALM      30.38F
KREMMLING      DRIZZLE   54  50  87 E14       30.44S
LEADVILLE      CLOUDY    59  37  44 W6        30.51F
MONARCH PASS   FOG       48  46  93 E7        30.77S VSB<1/4
SALIDA         CLOUDY    63  55  75 E10G17    30.47S
SUNLIGHT       PTSUNNY   54  46  76 E3        30.59S
WILKERSON PASS NOT AVBL
$$

COZ069>075-212300-
...SAN LUIS VALLEY/SANGRE DE CRISTO MOUNTAINS...

CITY           SKY/WX    TMP DP  RH WIND       PRES   REMARKS
ALAMOSA        CLOUDY    70  43  37 W9        30.34S
LA VETA PASS   CLOUDY    50  48  93 NE15      30.58S FOG
SAGUACHE       NOT AVBL
$$

COZ035-036-038>040-212300-
...NORTHERN COLORADO FRONT RANGE...

CITY           SKY/WX    TMP DP  RH WIND       PRES   REMARKS
DENVER INTL AP PTSUNNY   74  50  42 NW10      30.26F
DMNS CITY PARK   N/A     69  49  48 NW3G13    30.27S
AURORA         PTSUNNY   72  51  48 S13       30.29S
FRONT RANGE AP NOT AVBL
ERIE MUNI ARPT NOT AVBL
BOULDER MUN AP CLOUDY    68  46  45 CALM      30.28F
CENTENNIAL     PTSUNNY   71  51  49 S9        30.30R
BROOMFIELD     PTSUNNY   68  48  49 NW7       30.30F
FORT COLLINS   PTSUNNY   72  48  43 CALM      30.27F
LONGMONT       PTSUNNY   72  48  43 CALM      30.29F
$$

COZ041-046-047-076>085-087-088-212300-
...PIKES PEAK/PALMER DIVIDE AND SOUTHERN FOOTHILLS...

CITY           SKY/WX    TMP DP  RH WIND       PRES   REMARKS
COLO. SPRINGS  MOSUNNY   70  48  45 S20G29    30.37F
A. F. ACADEMY  MOSUNNY   69  48  47 SE22      30.36F
ELLICOTT       NOT AVBL
FALCON         MOSUNNY   68  45  42 S17       30.41S
FORT CARSON    CLOUDY    68  50  53 S15       30.35S
LIMON          SUNNY     73  43  33 S21G26    30.32F
MONUMENT HILL  MOSUNNY   68  45  42 S21       30.37F
TRINIDAD       MOSUNNY   73  49  42 SE12G22   30.31F
$$

COZ042>045-048>051-090-091-212300-
...NORTHEAST COLORADO...

CITY           SKY/WX    TMP DP  RH WIND       PRES   REMARKS
GREELEY ARPT   PTSUNNY   77  50  38 E14       30.24F
AKRON          PTSUNNY   73  41  31 SE17G25   30.29F
BURLINGTON     MOSUNNY   75  37  25 E14G20    30.31F
WRAY           PTSUNNY   75  37  25 E12       30.29F
STERLING       PTSUNNY   73  46  38 SE10      30.27F
HOLYOKE        SUNNY     79  41  25 E9G16     30.29F
FORT MORGAN    CLOUDY    75  43  32 SE8G18    30.27F
$$

COZ086-089-092>099-212300-
...SOUTHEAST COLORADO...

CITY           SKY/WX    TMP DP  RH WIND       PRES   REMARKS
PUEBLO         MOSUNNY   74  47  38 E12       30.28F
LA JUNTA       MOSUNNY   79  42  26 E14       30.26F
LAMAR          SUNNY     79  43  27 E6        30.24F
SPRINGFIELD      N/A     78  44  29 E14G22    30.27F
$$



USA.gov is the U.S. government's official web portal to all federal, state and local government web resources and services.